Location: Newark
(47.8167°N, 6.1833°E)
Time: 18:37:03
(UTC+00:00)

N. Korean satellite - Visible Passes

Search period start: 22 September 2020 00:00
Search period end: 02 October 2020 00:00
Orbit: 455 x 503 km, 97.2° (Epoch: 21 September)

Date Brightness Start Highest point End Pass type
(mag) Time Alt. Az. Time Alt. Az. Time Alt. Az.
23 Sep 8.9 04:38:48 10° NNE 04:42:05 30° E 04:45:18 10° SSE visible
24 Sep 9.8 04:13:35 10° NE 04:15:52 16° E 04:18:09 10° SE visible
26 Sep 8.0 04:53:55 10° NNE 04:57:27 45° E 05:00:54 10° S visible
27 Sep 9.4 04:28:21 10° NE 04:31:18 23° E 04:34:12 10° SSE visible
28 Sep 10.1 04:03:36 10° ENE 04:05:03 12° E 04:06:29 10° ESE visible
30 Sep 8.6 04:43:20 10° NNE 04:46:40 33° E 04:49:55 10° SSE visible
01 Oct 9.8 04:17:59 10° NE 04:20:28 17° E 04:22:54 10° SE visible
